EW2001 Weather Reports


Display with metric or nautical units.
time (UTC)temp
F
wind
direction
speed
MPH
gust
MPH
rain 1hr
in
rain 24hr
in
rain mn
in
humidity
%
barometer
mb
20260504174505 67 39 8.0 14.0 0.00 0.00 0.00 35 1013.3
20260504173003 66 105 5.0 17.0 0.00 0.00 0.00 36 1013.3
20260504171505 66 346 8.0 15.0 0.00 0.00 0.00 36 1013.4
20260504100108 46 260 0.0 1.0 0.00 0.01 0.00 83 1012.2
20260504081540 49 289 0.0 0.0 0.00 0.02 0.00 78 1011.6
20260504050022 61 75 0.0 1.0 0.00 0.02 0.02 54 1011.2
20260504044525 62 75 0.0 2.0 0.00 0.02 0.02 54 1011.2
20260504043024 62 78 0.0 3.0 0.00 0.02 0.02 49 1011.2
20260504041524 61 7 0.0 1.0 0.00 0.02 0.02 50 1011.1
20260504040023 62 9 0.0 1.0 0.00 0.02 0.02 53 1010.9
20260504034530 63 51 0.0 1.0 0.00 0.02 0.02 57 1010.7
20260504033034 64 294 0.0 0.0 0.00 0.02 0.02 52 1010.6
20260504031518 66 294 0.0 0.0 0.00 0.02 0.02 47 1010.5
20260504030017 68 16 0.0 2.0 0.00 0.02 0.02 44 1010.5
20260504024538 70 40 0.0 0.0 0.00 0.02 0.02 40 1010.4
20260504023017 72 6 0.0 3.0 0.00 0.02 0.02 36 1010.5
20260504021517 74 11 0.0 3.0 0.00 0.02 0.02 34 1010.4
20260504020016 75 74 0.0 1.0 0.00 0.02 0.02 34 1010.4
20260504014512 76 49 0.0 4.0 0.00 0.02 0.02 32 1010.5
20260504013015 76 290 0.0 2.0 0.00 0.02 0.02 32 1010.7
20260504011508 75 308 0.0 3.0 0.00 0.02 0.02 32 1010.8
20260504010007 75 65 0.0 3.0 0.00 0.02 0.02 32 1011.0
20260504004508 75 18 0.0 6.0 0.00 0.02 0.02 30 1011.2
20260504003002 74 80 2.0 6.0 0.00 0.02 0.02 30 1011.3
20260504001607 74 73 3.0 6.0 0.00 0.02 0.02 31 1011.5
20260503234557 76 108 5.0 8.0 0.00 0.02 0.02 28 1011.7
20260503233054 74 104 4.0 9.0 0.00 0.02 0.02 30 1011.9
20260503231555 73 79 7.0 10.0 0.00 0.02 0.02 30 1012.2
20260503230051 74 110 5.0 9.0 0.00 0.02 0.02 29 1012.4
20260503224544 73 89 6.0 9.0 0.00 0.02 0.02 30 1012.6
20260503223042 73 111 7.0 12.0 0.00 0.02 0.02 32 1013.0
20260503221541 73 79 5.0 10.0 0.00 0.02 0.02 32 1013.2
20260503220039 72 71 7.0 10.0 0.00 0.02 0.02 32 1013.4
20260503214533 72 66 6.0 10.0 0.00 0.02 0.02 33 1013.7
20260503213032 71 105 5.0 9.0 0.00 0.02 0.02 33 1014.0
20260503211537 71 84 4.0 8.0 0.00 0.02 0.02 33 1014.2
20260503210026 70 78 5.0 10.0 0.00 0.02 0.02 38 1014.5
20260503204524 71 72 4.0 8.0 0.00 0.02 0.02 36 1014.9
20260503203023 71 112 4.0 7.0 0.00 0.02 0.02 35 1015.2
20260503201519 70 72 3.0 6.0 0.00 0.02 0.02 36 1015.4
20260503200016 69 83 4.0 8.0 0.00 0.02 0.02 39 1015.6
20260503194512 68 59 3.0 7.0 0.00 0.02 0.02 37 1016.0
20260503193028 68 105 4.0 8.0 0.00 0.02 0.02 38 1016.2
20260503191507 67 69 4.0 9.0 0.00 0.02 0.02 33 1016.5
20260503190003 67 77 3.0 7.0 0.00 0.02 0.02 41 1016.7
20260503184609 65 91 4.0 9.0 0.00 0.02 0.02 40 1016.9
20260503183058 66 355 2.0 7.0 0.00 0.02 0.02 41 1017.1
20260503181554 65 81 3.0 6.0 0.00 0.02 0.02 43 1017.3
20260503180052 64 96 5.0 8.0 0.00 0.02 0.02 42 1017.4